This is the latest recevied weather packets stored in our database for station/object KC8P. If no packets are shown the sender has not sent any weather packets the latest 10 day(s).
| Time | Temp. | Humidity | Pressure | Rain* | Wind** | Luminosity | Snow |
|---|---|---|---|---|---|---|---|
| 1778271803 | 17.78° C | 34% | 1007.6 hPa | 0 mm | - | 560 W/m² | - |
| 1778271751 | 17.78° C | 33% | 1007.9 hPa | 0 mm | - | 573 W/m² | - |
| 1778271671 | 17.78° C | 33% | 1007.6 hPa | 0 mm | - | 595 W/m² | - |
| 1778271619 | 17.22° C | 35% | 1007.9 hPa | 0 mm | - | 594 W/m² | - |
| 1778271539 | 16.67° C | 34% | 1007.9 hPa | 0 mm | - | 597 W/m² | - |
| 1778271475 | 17.22° C | 35% | 1007.9 hPa | 0 mm | - | 606 W/m² | - |
| 1778271408 | 17.22° C | 35% | 1007.9 hPa | 0 mm | - | 563 W/m² | - |
| 1778271343 | 17.22° C | 34% | 1007.9 hPa | 0 mm | - | 564 W/m² | - |
| 1778271302 | 17.22° C | 34% | 1007.9 hPa | 0 mm | - | 555 W/m² | - |
| 1778271293 | 17.22° C | 37% | 1007.9 hPa | 0 mm | - | 539 W/m² | - |
| 1778271152 | 17.22° C | 36% | 1007.9 hPa | 0 mm | - | 493 W/m² | - |
| 1778271143 | 17.22° C | 34% | 1007.9 hPa | 0 mm | - | 491 W/m² | - |
| 1778271135 | 16.67° C | 36% | 1007.9 hPa | 0 mm | - | 489 W/m² | - |
| 1778270985 | 16.67° C | 36% | 1007.9 hPa | 0 mm | - | 475 W/m² | - |
| 1778270976 | 16.67° C | 35% | 1007.9 hPa | 0 mm | - | 459 W/m² | - |
| 1778270836 | 16.67° C | 35% | 1007.9 hPa | 0 mm | - | 443 W/m² | - |
| 1778270827 | 16.67° C | 35% | 1007.9 hPa | 0 mm | - | 455 W/m² | - |
| 1778270819 | 16.67° C | 35% | 1007.9 hPa | 0 mm | - | 456 W/m² | - |
| 1778270677 | 16.67° C | 35% | 1008.3 hPa | 0 mm | - | 482 W/m² | - |
| 1778270669 | 17.22° C | 34% | 1008.3 hPa | 0 mm | - | 475 W/m² | - |
| 1778270525 | 17.22° C | 34% | 1008.3 hPa | 0 mm | - | 493 W/m² | - |
| 1778270517 | 17.22° C | 36% | 1008.3 hPa | 0 mm | - | 468 W/m² | - |
| 1778270375 | 17.22° C | 36% | 1008.3 hPa | 0 mm | - | 478 W/m² | - |
| 1778270367 | 17.22° C | 37% | 1008.3 hPa | 0 mm | - | 481 W/m² | - |
| 1778270225 | 17.22° C | 37% | 1008.3 hPa | 0 mm | - | 495 W/m² | - |
* Rain latest hour (hover to see other rain measurements)
** Current wind speed in m/s (hover to see current wind gust speed)